Temp
20 20 20 20 16 13 15 18 17 19 19 20 20 20 19 20 19 17 21 20 19 19 19 18 18 17 17 17 17 17 17 17 16 16 16 16 16 16 16 15 15 15 14 14 15 15 15 15 15
20 21 20 20 14 14 15 16 19 19 20 20 20 20 20 19 21 21 21 20 20 19 19 18 18 18 17 17 17 17 17 16 16 16 16 16 16 16 16 15 14 14 14 13 14 15 15 15 15
20 21 20 11 11 14 16 17 18 19 20 20 20 20 20 21 21 21 21 21 20 19 18 18 18 18 17 17 17 17 17 17 17 16 16 16 16 16 15 15 15 14 14 13 14 14 14 15 15
20 20 18 14 18 17 18 18 18 19 20 20 20 20 20 21 21 21 21 21 20 19 18 18 17 17 17 17 17 17 17 17 16 16 16 16 16 15 15 15 13 13 13 13 15 14 14 14 15
21 19 13 15 17 17 17 18 19 18 19 20 20 20 20 20 20 21 21 20 20 20 19 18 17 17 17 17 16 16 16 16 16 16 15 15 15 15 15 14 13 12 12 14 15 15 14 14 15
19 17 13 15 17 17 17 19 19 19 19 20 20 19 20 20 20 20 21 20 20 20 20 19 18 17 16 16 16 16 16 16 15 15 15 15 15 14 14 14 14 14 15 15 15 15 15 14 14
15 11 13 15 16 18 18 19 19 19 19 20 20 18 20 20 20 20 20 20 20 20 19 18 18 18 17 17 16 16 15 15 15 15 15 14 14 14 14 13 13 13 14 14 15 15 14 14 15
18 12 15 15 15 18 18 19 19 19 19 20 20 18 19 19 19 19 19 19 19 19 19 18 17 17 16 16 16 15 15 15 15 14 14 14 14 14 14 13 13 13 13 13 14 14 14 14 15
18 12 13 16 15 18 18 18 19 19 19 19 19 19 18 18 19 19 19 19 19 18 18 18 17 17 16 16 16 15 15 14 13 13 13 13 13 13 13 13 12 12 12 13 13 14 14 14 14
15 11 15 15 17 17 18 17 18 18 18 18 19 18 18 18 19 19 19 19 19 19 18 18 18 18 17 16 15 15 14 13 13 13 13 12 12 12 12 12 12 12 12 12 12 13 14 14 14
14 14 15 17 17 17 17 17 17 17 16 17 17 17 18 18 18 19 18 19 19 19 19 18 18 18 18 17 16 15 14 14 13 12 12 12 12 12 11 11 11 11 12 12 11 12 12 13 13
16 16 16 17 17 17 16 17 17 16 17 16 17 17 18 18 18 18 17 17 17 18 18 18 18 18 18 17 17 16 15 14 13 12 12 12 12 12 11 11 11 11 11 11 11 10 11 12 13
15 16 16 17 16 16 16 16 16 18 17 17 17 16 16 16 16 16 16 16 16 17 17 17 17 18 18 17 17 16 15 14 13 12 12 12 12 11 11 11 11 11 11 10 10 10 10 11 12
15 15 15 17 17 16 15 15 16 16 16 17 17 17 15 14 14 14 14 15 15 16 16 16 17 17 17 17 17 15 14 13 12 12 11 11 11 11 11 11 10 11 11 10 10 10 10 10 10
15 14 12 15 15 15 15 16 14 16 16 17 16 15 13 13 13 14 14 15 15 16 15 15 16 16 16 17 15 14 13 12 12 12 11 11 11 11 11 11 12 11 11 10 10 10 10 9 9
14 12 12 15 14 15 15 15 15 16 16 14 13 12 12 12 11 10 11 13 13 12 13 15 14 14 15 15 14 13 11 11 11 11 11 11 11 11 11 11 11 11 11 11 10 10 10 10 9
10 12 12 12 14 14 15 14 15 15 14 12 10 9 9 10 11 11 11 11 11 12 12 12 12 13 13 13 13 12 11 11 11 10 10 10 10 10 10 10 10 10 10 10 9 10 10 9 9
11 11 11 12 14 14 14 12 12 14 14 11 8 8 8 9 9 10 10 10 10 10 11 11 11 12 12 11 11 11 10 10 10 10 10 10 10 10 10 9 9 9 10 9 9 8 8 8 7
12 11 12 12 13 14 12 11 12 14 10 7 6 6 6 7 6 8 9 9 10 10 11 11 11 10 10 10 10 9 10 9 9 8 8 8 8 9 9 9 9 9 8 8 8 8 8 7 7
11 11 10 10 11 12 11 10 10 10 8 7 5 5 5 5 6 7 8 9 10 10 10 10 11 10 10 10 10 9 9 8 8 8 8 8 8 7 8 8 8 7 7 7 7 7 7 7 6
9 9 10 11 11 11 11 9 10 5 5 4 4 5 5 6 6 6 7 8 8 9 9 10 10 10 10 10 10 9 8 8 7 8 8 8 8 7 7 7 7 6 6 6 6 6 6 5 5
10 9 10 11 10 9 10 9 9 7 4 2 3 4 4 5 5 6 6 7 8 8 8 9 9 10 9 9 9 10 10 10 9 8 7 7 7 7 6 6 6 5 5 5 5 4 4 4 3
11 9 9 10 8 9 10 8 8 7 6 2 2 3 3 4 4 5 5 7 7 7 8 8 9 9 9 9 9 9 10 9 7 7 6 6 6 5 5 5 4 4 3 3 3 3 3 2 2
9 9 8 6 7 6 9 9 8 7 8 4 2 2 3 3 4 4 5 6 6 6 7 7 8 8 8 8 8 8 8 7 6 5 5 4 4 4 4 3 3 3 3 2 2 2 1 1 1
10 9 9 8 6 8 7 7 9 8 6 5 3 2 3 3 4 4 5 5 5 6 6 6 7 7 7 7 7 7 6 6 6 5 5 4 3 3 3 2 2 2 1 1 1 1 1 1 0
8 9 8 9 7 7 6 7 10 4 2 3 4 4 3 3 4 4 5 5 5 5 6 6 6 6 6 6 6 5 5 5 5 4 4 3 3 2 2 1 1 1 0 0 -0 -0 0 -0 -0
9 9 9 7 -2 3 8 8 5 3 2 1 2 3 3 3 4 4 5 5 5 5 5 5 5 5 5 4 4 4 4 3 3 3 2 2 1 1 1 0 -0 -0 -0 -0 -0 -1 -1 -1 -1
9 8 8 5 7 5 8 7 9 5 4 0 0 2 3 3 4 4 4 4 5 5 4 4 4 3 3 3 3 2 2 1 1 1 0 -0 -1 -1 -1 -1 -1 -1 -1 -1 -1 -1 -1 -0 -0
8 8 7 7 6 7 5 8 6 6 3 1 1 3 4 5 5 5 5 5 5 4 3 3 2 2 2 2 1 0 0 -0 -0 -1 -1 -2 -2 -2 -2 -2 -2 -2 -2 -2 -1 -1 -1 -1 -1
7 7 7 9 7 3 5 9 4 4 3 4 3 5 5 6 6 5 5 4 4 3 2 2 1 1 1 0 -0 -0 -1 -1 -2 -2 -2 -2 -2 -2 -3 -2 -2 -2 -2 -2 -2 -2 -2 -2 -2
Height
1535 1534 1533 1534 1546 1553 1562 1553 1548 1546 1546 1545 1544 1544 1546 1546 1548 1560 1547 1546 1546 1547 1548 1550 1552 1554 1557 1559 1562 1563 1565 1566 1567 1568 1568 1569 1569 1570 1571 1571 1572 1572 1572 1571 1571 1571 1571 1571 1571
1534 1534 1534 1534 1556 1571 1567 1552 1547 1545 1545 1544 1545 1545 1546 1547 1547 1547 1547 1547 1546 1547 1549 1551 1552 1554 1556 1559 1561 1563 1564 1566 1567 1568 1569 1570 1570 1570 1571 1572 1573 1573 1573 1572 1572 1573 1573 1573 1573
1534 1534 1535 1543 1563 1568 1563 1549 1546 1545 1544 1544 1545 1546 1546 1547 1547 1547 1547 1547 1547 1547 1548 1550 1552 1554 1557 1559 1561 1562 1564 1565 1567 1568 1569 1569 1570 1571 1571 1572 1573 1573 1573 1572 1572 1573 1573 1573 1573
1534 1535 1538 1552 1552 1551 1549 1546 1545 1544 1545 1545 1545 1546 1547 1546 1547 1548 1548 1548 1548 1548 1549 1550 1552 1554 1556 1558 1560 1562 1563 1565 1566 1567 1568 1569 1569 1570 1571 1572 1572 1573 1573 1571 1571 1572 1573 1573 1573
1535 1536 1550 1556 1554 1550 1548 1546 1546 1546 1545 1545 1545 1546 1546 1546 1547 1548 1549 1549 1549 1549 1549 1550 1552 1554 1556 1558 1560 1561 1563 1565 1566 1567 1568 1568 1569 1570 1571 1571 1572 1572 1571 1570 1570 1571 1572 1572 1572
1536 1539 1559 1563 1554 1548 1546 1546 1546 1546 1546 1546 1546 1546 1546 1547 1548 1548 1548 1549 1549 1549 1549 1550 1551 1552 1554 1556 1558 1559 1561 1563 1564 1566 1567 1568 1568 1569 1570 1570 1571 1572 1570 1570 1570 1570 1570 1571 1570
1538 1547 1558 1555 1553 1549 1546 1545 1546 1545 1546 1546 1545 1545 1546 1546 1547 1548 1548 1548 1548 1548 1549 1550 1550 1551 1552 1553 1555 1557 1559 1561 1563 1564 1565 1566 1567 1568 1569 1570 1570 1570 1570 1570 1569 1569 1569 1570 1570
1539 1544 1554 1554 1555 1549 1544 1544 1545 1546 1547 1546 1545 1545 1545 1545 1546 1546 1546 1546 1547 1547 1548 1548 1549 1550 1551 1552 1554 1555 1557 1558 1560 1562 1564 1565 1566 1566 1567 1568 1570 1570 1570 1569 1569 1569 1569 1569 1569
1540 1553 1560 1551 1553 1546 1544 1544 1545 1545 1545 1545 1545 1545 1545 1544 1544 1544 1544 1545 1545 1546 1546 1546 1547 1548 1548 1550 1551 1552 1554 1556 1558 1560 1561 1563 1564 1564 1565 1567 1568 1568 1568 1569 1568 1568 1569 1568 1568
1541 1555 1549 1544 1543 1544 1543 1544 1545 1544 1543 1544 1544 1545 1543 1543 1542 1542 1542 1542 1542 1542 1542 1543 1544 1545 1546 1547 1548 1550 1551 1554 1556 1558 1560 1560 1562 1563 1564 1565 1566 1566 1567 1567 1567 1567 1568 1567 1567
1543 1549 1544 1542 1542 1543 1543 1544 1545 1544 1543 1544 1543 1542 1541 1541 1540 1539 1539 1538 1538 1538 1539 1539 1540 1542 1543 1544 1545 1546 1548 1551 1553 1555 1557 1558 1559 1560 1561 1562 1563 1564 1565 1565 1565 1566 1566 1565 1566
1544 1542 1543 1542 1542 1543 1543 1543 1543 1542 1542 1542 1542 1541 1540 1540 1538 1537 1538 1538 1537 1537 1536 1536 1536 1537 1538 1540 1541 1543 1545 1547 1549 1551 1553 1555 1557 1558 1559 1561 1562 1562 1563 1563 1563 1563 1564 1563 1563
1542 1541 1541 1541 1541 1541 1541 1541 1542 1539 1540 1540 1540 1539 1538 1538 1537 1536 1534 1534 1534 1534 1534 1534 1533 1532 1533 1535 1538 1541 1543 1545 1547 1548 1550 1552 1554 1555 1557 1558 1559 1560 1561 1562 1562 1562 1562 1561 1561
1542 1542 1540 1537 1537 1538 1538 1539 1540 1538 1537 1538 1539 1537 1536 1536 1535 1535 1534 1532 1531 1530 1530 1530 1530 1530 1530 1531 1535 1539 1542 1545 1546 1547 1548 1549 1550 1553 1554 1555 1556 1558 1558 1559 1559 1559 1559 1559 1559
1541 1543 1540 1535 1535 1535 1535 1537 1537 1537 1537 1537 1537 1536 1536 1535 1534 1533 1532 1531 1530 1528 1526 1525 1525 1526 1527 1528 1532 1536 1540 1543 1545 1546 1547 1547 1548 1549 1551 1552 1553 1554 1555 1556 1556 1556 1557 1557 1557
1543 1546 1550 1535 1534 1534 1536 1542 1533 1534 1535 1535 1536 1536 1536 1536 1535 1534 1532 1530 1529 1527 1526 1523 1523 1523 1525 1527 1529 1534 1538 1541 1542 1544 1545 1546 1546 1547 1547 1548 1549 1550 1550 1551 1552 1553 1553 1554 1554
1552 1553 1552 1543 1533 1534 1536 1538 1532 1534 1534 1535 1536 1537 1537 1535 1534 1533 1533 1532 1530 1528 1526 1526 1523 1522 1524 1527 1529 1532 1535 1539 1541 1542 1543 1545 1544 1545 1545 1546 1546 1546 1547 1547 1547 1548 1549 1550 1550
1551 1553 1550 1546 1536 1535 1537 1537 1528 1530 1530 1531 1532 1533 1534 1534 1533 1533 1532 1532 1531 1530 1528 1527 1525 1525 1525 1527 1529 1533 1534 1537 1539 1542 1542 1543 1545 1545 1544 1545 1545 1544 1545 1545 1545 1544 1544 1545 1545
1539 1545 1543 1537 1534 1535 1535 1536 1530 1525 1527 1529 1531 1533 1534 1534 1533 1532 1533 1532 1532 1531 1529 1528 1528 1527 1527 1529 1530 1532 1537 1538 1540 1540 1542 1543 1544 1544 1545 1544 1543 1543 1543 1543 1543 1543 1543 1543 1542
1538 1542 1544 1539 1534 1537 1535 1536 1528 1526 1527 1529 1529 1531 1533 1534 1536 1535 1533 1533 1533 1534 1532 1531 1529 1529 1530 1529 1530 1534 1536 1539 1542 1541 1540 1541 1543 1544 1544 1544 1544 1542 1541 1541 1541 1541 1540 1540 1540
1539 1540 1541 1539 1535 1534 1535 1535 1523 1526 1526 1528 1531 1532 1532 1531 1530 1533 1535 1535 1535 1536 1538 1535 1533 1533 1533 1534 1533 1534 1537 1539 1541 1542 1541 1540 1540 1542 1542 1542 1542 1542 1540 1539 1539 1539 1539 1539 1539
1538 1529 1532 1535 1541 1547 1535 1544 1522 1520 1526 1527 1527 1528 1530 1532 1533 1532 1532 1532 1535 1537 1541 1541 1540 1537 1537 1539 1540 1539 1538 1541 1541 1542 1542 1542 1541 1541 1541 1540 1541 1541 1540 1538 1536 1536 1536 1536 1536
1528 1527 1532 1534 1541 1541 1539 1547 1521 1516 1520 1524 1527 1531 1534 1538 1539 1535 1535 1533 1534 1534 1538 1540 1540 1540 1540 1540 1541 1542 1541 1541 1542 1543 1543 1542 1542 1542 1541 1540 1540 1539 1540 1539 1537 1535 1534 1534 1533
1524 1530 1536 1544 1544 1553 1532 1533 1524 1518 1510 1518 1523 1525 1528 1533 1537 1542 1536 1534 1535 1535 1536 1538 1540 1539 1541 1540 1540 1539 1540 1541 1543 1542 1543 1544 1542 1542 1540 1541 1541 1539 1540 1540 1540 1534 1534 1533 1533
1524 1532 1546 1552 1558 1539 1531 1535 1517 1513 1513 1516 1518 1523 1528 1531 1534 1540 1540 1538 1537 1537 1538 1539 1540 1539 1540 1540 1540 1540 1541 1542 1542 1542 1543 1543 1543 1542 1541 1542 1541 1540 1540 1538 1541 1536 1531 1532 1530
1523 1525 1540 1545 1553 1540 1538 1529 1507 1516 1515 1511 1515 1521 1527 1528 1530 1536 1539 1539 1541 1541 1540 1539 1540 1540 1539 1540 1541 1541 1542 1543 1543 1542 1543 1543 1541 1542 1541 1541 1540 1539 1540 1539 1538 1536 1530 1530 1529
1521 1526 1522 1537 1575 1559 1525 1519 1518 1514 1512 1513 1512 1518 1524 1528 1529 1533 1537 1538 1539 1541 1541 1539 1538 1538 1539 1539 1541 1541 1541 1542 1542 1542 1542 1542 1543 1543 1542 1541 1540 1540 1537 1535 1535 1532 1528 1528 1525
1509 1510 1526 1540 1544 1550 1518 1518 1511 1516 1512 1512 1512 1515 1519 1524 1526 1530 1534 1537 1537 1538 1539 1538 1538 1538 1537 1538 1539 1540 1540 1540 1541 1541 1541 1541 1542 1541 1540 1539 1537 1536 1533 1532 1530 1527 1525 1521 1518
1513 1514 1517 1521 1529 1526 1538 1508 1503 1503 1511 1511 1508 1512 1516 1517 1522 1527 1530 1533 1533 1534 1534 1535 1536 1537 1537 1536 1536 1537 1538 1539 1538 1538 1539 1538 1538 1537 1536 1534 1533 1530 1528 1525 1522 1519 1517 1515 1513
1500 1502 1504 1510 1521 1531 1524 1491 1504 1501 1500 1506 1506 1509 1512 1516 1518 1523 1526 1527 1528 1529 1530 1531 1532 1534 1534 1534 1534 1534 1535 1535 1536 1536 1536 1535 1534 1532 1530 1528 1526 1523 1520 1517 1513 1510 1508 1505 1503
Wind_Speed
3 3 3 1 4 5 1 1 1 3 2 2 2 2 2 2 3 2 6 2 3 4 13 15 14 15 15 13 12 11 8 6 4 2 2 3 2 1 1 2 3 2 7 4 4 4 4 3 2
3 3 2 2 5 4 4 4 1 1 1 2 2 3 4 1 2 2 4 3 4 2 8 15 15 14 14 14 13 11 9 7 5 4 4 4 4 3 2 1 2 4 4 3 2 4 3 2 1
3 3 1 4 4 4 3 3 2 2 3 3 2 3 2 1 4 3 6 6 4 1 4 11 16 15 14 14 12 11 10 8 7 6 6 6 5 4 4 4 3 3 5 7 4 3 3 3 4
4 2 5 5 2 1 1 2 3 2 2 5 4 2 1 2 1 2 6 8 7 3 2 5 14 16 15 15 14 12 11 9 8 8 7 7 7 4 5 5 2 5 8 9 8 6 5 6 7
4 3 4 4 3 3 3 1 1 2 1 3 3 2 4 3 0 2 4 8 9 5 1 5 7 14 16 16 16 14 13 12 10 9 9 7 7 7 7 5 5 5 6 8 6 6 7 7 8
3 3 5 2 2 3 2 2 1 2 3 3 3 5 3 7 2 2 4 5 8 8 4 3 6 9 14 18 18 17 16 15 13 12 10 10 9 8 6 5 4 6 9 10 9 7 7 8 8
5 4 4 4 1 1 1 3 2 1 3 1 3 3 2 8 5 4 6 5 3 3 2 3 6 8 11 15 19 20 19 17 15 13 12 11 10 10 7 6 7 8 9 10 11 7 7 8 8
3 5 3 1 1 1 2 2 1 1 1 1 2 2 2 9 3 4 4 6 5 5 5 5 6 9 11 13 17 19 20 19 18 16 14 12 12 13 10 10 9 10 10 11 11 8 8 7 7
2 4 2 4 6 2 1 3 1 4 2 5 3 4 6 10 8 6 4 6 8 8 8 8 9 9 10 12 14 16 19 19 18 16 15 14 15 16 15 12 11 11 12 11 12 11 10 9 7
4 3 6 3 2 2 3 2 5 4 8 2 7 4 8 9 10 8 9 10 10 10 11 11 11 11 11 12 13 14 16 17 17 16 15 16 15 16 15 14 13 13 13 13 13 12 10 10 10
2 3 3 3 6 2 2 3 1 3 3 2 9 8 6 5 3 3 4 5 7 9 9 12 13 13 12 12 11 11 14 15 16 17 19 18 17 17 15 16 17 16 14 14 15 13 11 11 12
1 3 4 3 3 2 3 2 2 7 2 6 2 3 6 6 6 6 7 7 8 7 7 9 12 15 16 15 13 11 10 11 15 18 19 19 19 18 17 17 17 18 18 17 16 16 13 13 13
2 2 3 7 10 12 10 8 5 15 11 8 3 2 3 4 5 7 7 7 8 10 11 12 12 14 16 18 16 14 10 9 9 11 18 19 18 18 17 16 18 19 18 19 18 17 15 15 15
1 5 11 11 13 10 6 2 1 2 8 6 3 5 6 6 5 6 8 8 8 9 10 11 13 14 12 15 17 14 11 7 4 3 5 9 14 17 18 19 16 17 18 18 19 18 19 17 16
2 4 7 8 5 4 3 1 5 8 5 3 4 3 5 7 8 8 7 8 9 11 13 11 10 11 9 8 13 12 10 7 4 3 3 5 6 9 11 14 16 15 15 18 20 20 19 18 17
4 4 4 3 3 1 4 7 3 9 6 3 2 1 3 6 9 8 7 5 5 6 6 6 6 3 1 3 9 10 8 6 7 7 7 8 8 10 12 14 13 15 17 16 17 18 19 19 18
5 3 4 8 3 2 3 7 2 3 2 2 1 2 2 2 3 5 6 6 5 4 5 5 7 7 7 8 8 8 8 6 6 5 5 6 8 8 8 10 11 11 12 14 17 18 18 18 16
6 4 4 6 1 1 1 8 10 5 7 5 7 6 4 3 4 5 5 5 6 5 5 6 8 11 11 11 10 10 11 8 3 1 2 3 5 8 9 9 9 9 10 12 9 10 11 12 14
5 5 6 3 3 2 6 6 12 16 6 11 10 9 7 7 9 8 8 8 8 8 8 9 8 10 11 10 11 13 10 9 5 4 2 2 4 6 8 8 9 10 10 10 11 13 14 15 16
3 4 6 5 3 4 7 8 11 2 1 6 14 13 11 12 10 11 13 13 14 15 17 16 16 14 12 11 12 11 11 9 6 4 2 2 4 6 6 7 8 9 9 10 12 17 19 18 18
5 8 4 7 3 3 2 6 8 3 4 7 11 13 14 14 15 13 14 16 18 19 19 20 20 20 19 17 15 13 11 10 6 5 5 5 5 5 7 8 9 10 10 10 11 12 14 16 17
6 8 7 5 3 4 1 5 5 4 4 5 14 18 17 16 14 15 15 16 17 18 18 18 20 21 22 20 17 15 15 12 13 11 11 9 8 7 7 8 9 10 10 10 10 11 12 13 14
7 5 6 4 3 1 3 2 7 6 6 7 12 14 13 11 11 13 14 15 16 17 17 17 17 19 18 16 15 14 14 14 12 10 9 10 10 11 11 11 11 12 13 12 10 9 10 12 13
6 5 6 4 3 2 9 8 4 5 4 4 13 19 19 17 14 11 13 14 15 16 16 15 13 14 13 11 10 9 9 9 7 8 7 9 9 9 10 11 13 13 14 16 15 14 13 13 11
4 5 1 3 2 6 1 2 5 2 2 1 15 24 21 18 15 13 12 12 13 13 12 11 9 10 9 8 7 7 7 5 5 6 8 8 9 10 11 13 13 14 14 14 15 15 15 16 16
7 7 5 6 3 4 3 6 4 2 5 6 13 24 22 21 18 15 12 11 9 8 7 5 4 4 4 3 2 2 2 3 4 5 7 8 10 12 12 12 13 15 15 15 16 18 18 19 19
5 5 4 4 2 2 4 4 3 1 3 6 17 25 24 22 20 17 14 11 9 8 7 5 2 2 3 3 2 2 1 1 3 3 5 7 8 9 10 12 13 15 17 19 21 23 24 24 25
4 6 3 2 2 5 4 4 5 6 7 6 11 24 25 22 20 17 16 14 12 11 10 9 7 7 7 6 5 4 3 2 2 3 5 6 8 10 12 13 15 17 19 21 23 25 28 31 33
3 2 3 3 4 5 3 5 5 6 7 11 17 25 26 23 20 19 18 16 15 16 16 13 11 11 10 8 7 5 3 3 5 7 10 12 14 15 16 18 20 22 23 26 29 31 34 35 37
3 7 7 6 7 3 2 12 1 3 12 18 20 24 22 20 18 19 20 21 22 21 18 15 14 13 10 9 7 4 4 5 8 10 13 15 18 20 21 22 24 27 30 33 36 39 42 44 45
Wind_Direction
310 330 347 6 58 66 4 324 243 350 25 27 60 67 139 129 138 200 355 12 22 152 185 182 184 185 187 190 190 194 203 200 203 233 270 276 282 313 358 66 116 300 325 321 48 54 56 80 96
18 6 26 92 83 66 282 269 218 268 9 34 84 56 50 353 11 2 11 357 5 130 178 192 190 192 195 198 201 204 207 212 232 245 246 250 265 276 294 323 285 325 358 348 30 25 23 16 356
35 16 24 90 105 147 181 232 260 316 32 48 76 60 90 352 11 46 27 26 6 17 175 198 200 199 202 206 208 210 220 235 248 257 266 267 264 271 293 301 301 245 260 272 317 315 326 321 309
13 23 58 75 83 203 189 263 239 345 66 51 32 51 332 346 36 57 49 35 19 0 206 203 211 211 211 213 217 220 227 241 257 267 268 266 268 275 290 297 257 242 273 286 284 287 295 296 295
19 57 56 74 315 288 274 335 181 40 40 20 35 338 319 357 42 125 49 27 19 11 304 219 217 223 224 226 229 232 239 247 254 259 261 260 271 285 299 297 263 244 269 304 320 292 295 296 299
60 64 63 140 260 292 319 32 110 74 19 22 25 344 10 23 58 6 2 18 28 17 2 289 249 233 232 236 238 241 246 251 255 259 259 257 276 283 277 278 336 288 306 323 332 317 305 304 305
97 75 167 171 244 342 284 356 88 119 11 339 341 356 103 51 18 345 308 296 354 10 357 297 266 254 247 239 240 244 248 251 254 254 252 254 265 274 275 282 301 318 323 328 332 320 309 307 306
83 92 112 226 210 191 326 69 102 112 180 266 292 258 315 330 320 324 285 272 293 313 300 286 266 258 251 248 246 244 246 250 250 250 248 248 258 266 264 270 284 299 314 328 332 326 310 305 298
85 62 163 207 159 211 0 39 191 313 252 297 266 295 303 296 300 301 281 274 275 286 276 270 276 269 255 255 254 251 248 248 249 249 250 251 252 259 264 261 271 284 296 309 325 326 315 305 288
80 106 216 218 203 202 326 2 334 337 326 358 333 329 287 288 285 288 287 288 277 272 266 261 263 260 262 253 248 250 250 246 246 251 252 247 251 265 265 263 271 275 283 293 303 315 314 300 287
106 166 212 262 242 276 324 312 163 308 337 106 327 347 22 27 345 286 282 284 288 288 274 259 255 255 252 251 256 252 252 251 244 242 244 245 250 255 264 265 270 273 282 288 291 299 305 294 286
62 230 214 274 250 296 274 280 272 252 238 331 339 13 345 335 320 314 314 308 302 291 282 274 262 250 244 241 239 246 250 254 251 243 247 250 251 258 265 264 269 273 282 288 295 292 295 293 279
163 288 281 282 281 276 268 252 243 265 278 262 233 302 343 339 330 325 319 311 301 300 300 295 282 262 247 237 233 234 245 260 277 249 246 246 253 258 259 270 275 276 278 284 294 307 303 292 288
307 305 300 294 281 277 240 219 243 28 146 162 247 310 339 348 340 323 308 306 307 306 297 290 286 283 261 238 233 229 238 252 281 302 255 251 249 254 262 266 283 277 281 282 289 295 297 298 292
345 339 325 271 275 245 202 254 215 167 167 213 240 287 328 343 340 333 329 324 328 328 330 322 291 281 279 242 223 220 224 234 247 264 267 265 248 249 255 266 276 281 280 285 287 286 296 295 303
24 57 360 287 175 240 147 264 83 185 213 209 199 343 2 1 360 359 352 342 343 352 351 1 9 9 346 186 188 194 203 203 228 244 246 255 254 250 252 258 263 271 269 278 281 292 295 292 295
3 244 208 311 211 123 153 262 162 116 203 144 141 85 57 41 357 346 358 5 15 26 39 49 63 85 99 109 137 163 166 187 225 229 248 260 270 286 286 281 275 284 283 272 271 266 271 272 283
199 217 242 235 6 99 205 269 289 258 258 202 175 154 142 110 56 41 38 38 43 51 65 78 87 88 97 107 117 130 139 139 173 229 281 295 290 275 265 277 284 282 284 284 305 297 289 296 299
151 177 221 252 237 157 238 246 263 285 153 161 170 154 138 111 93 85 76 74 72 81 89 92 106 106 106 110 118 122 132 128 129 119 101 336 321 300 296 290 289 297 300 298 299 302 302 297 297
127 177 248 289 241 164 269 262 256 299 142 218 180 164 149 128 117 103 101 102 102 92 91 93 94 99 107 115 113 115 121 128 114 100 58 348 314 310 304 297 297 298 308 307 310 309 307 306 307
200 212 206 221 347 253 314 273 251 72 79 104 155 161 159 153 141 124 115 104 96 91 85 86 90 90 88 84 89 95 98 96 88 65 45 35 12 337 325 324 315 307 300 296 294 290 293 299 300
220 194 189 217 113 241 161 273 290 165 116 137 167 175 171 162 150 138 128 117 102 89 82 80 80 80 77 74 73 82 83 77 65 54 48 44 36 22 10 359 349 342 334 316 306 298 299 300 303
227 140 166 161 172 102 265 324 257 144 215 200 195 182 173 165 158 141 129 121 113 107 101 94 90 85 79 70 62 50 46 60 61 56 45 39 37 32 31 28 27 26 21 13 358 342 331 317 307
131 74 47 48 105 244 223 188 262 195 210 145 184 186 179 176 168 159 141 132 125 119 116 109 96 86 74 61 59 55 67 77 83 73 50 39 31 24 18 14 10 9 7 7 7 13 9 9 349
94 96 325 331 327 235 15 168 257 173 66 230 187 188 184 178 174 172 157 143 137 133 129 113 89 71 64 49 51 54 58 61 43 29 17 11 9 6 9 7 6 4 3 360 353 354 357 355 354
177 161 165 226 224 275 350 234 245 336 336 285 209 191 185 183 179 181 170 162 157 147 139 125 84 40 39 35 50 90 80 31 8 353 343 343 349 351 354 351 350 347 344 342 339 339 341 339 336
187 180 160 103 102 29 211 301 271 78 61 111 160 179 188 191 189 188 185 185 184 186 187 192 230 260 211 192 180 174 193 288 317 322 328 331 332 328 328 331 332 330 330 330 329 330 330 327 326
174 163 96 17 270 259 249 251 233 245 216 170 172 186 193 196 198 197 201 205 207 212 219 224 231 229 218 210 209 215 230 250 301 323 330 331 330 328 327 324 324 324 325 324 324 324 324 322 322
138 184 75 135 168 196 275 253 202 222 184 193 197 199 200 200 204 206 208 215 222 227 227 228 227 222 219 216 217 224 249 308 336 341 339 337 334 331 327 325 324 324 324 324 324 325 323 321 319
179 191 166 200 225 244 149 264 38 298 193 193 197 202 206 212 211 214 218 223 230 234 231 232 229 226 226 226 233 254 287 319 331 332 331 330 328 326 323 321 321 322 324 324 324 323 322 320 318